When you browse on this site, cookies collect data to enhance your experience and personalize the content and advertising you see.
Visit our Privacy Policy to learn more. By continuing to use the site, you agree to this use of cookies and data.
  • In Netherlands
  • List of Countries
  • For 7 days
  • Water Temperature
  • Satellite Maps
  • Weather Map
  • Weather Widgets
  • user-avatar
    Login

    Hourly Weather Stara Zagora

    Today, 17 July, Wednesday

    Time Temperature Precipitation Wind Pressure Humidity
    00:00 +18°C° 0 mm 2 mps 738 mmHg 80%
    01:00 +18°C° 0 mm 2 mps 738 mmHg 80%
    02:00 +17°C° 0 mm 2 mps 738 mmHg 82%
    03:00 +17°C° 0 mm 2 mps 738 mmHg 81%
    04:00 +17°C° 0 mm 2 mps 738 mmHg 80%
    05:00 +17°C° 0 mm 2 mps 738 mmHg 79%
    06:00 +18°C° 0 mm 2 mps 738 mmHg 73%
    07:00 +20°C° 0 mm 2 mps 738 mmHg 66%
    08:00 +23°C° 0 mm 2 mps 738 mmHg 59%
    09:00 +24°C° 0 mm 3 mps 738 mmHg 55%
    10:00 +26°C° 0 mm 3 mps 738 mmHg 50%
    11:00 +27°C° 0 mm 3 mps 738 mmHg 45%
    12:00 +27°C° 0 mm 3 mps 738 mmHg 45%
    13:00 +27°C° 0 mm 3 mps 738 mmHg 45%
    14:00 +28°C° 0 mm 3 mps 738 mmHg 44%
    15:00 +28°C° 0 mm 3 mps 738 mmHg 45%
    16:00 +28°C° 0 mm 3 mps 738 mmHg 47%
    17:00 +27°C° 0 mm 3 mps 737 mmHg 48%
    18:00 +26°C° 0 mm 2 mps 737 mmHg 54%
    19:00 +24°C° 0 mm 2 mps 737 mmHg 60%
    20:00 +22°C° 0 mm 1 mps 737 mmHg 66%
    21:00 +22°C° 0 mm 1 mps 737 mmHg 67%
    22:00 +21°C° 0 mm 1 mps 738 mmHg 67%
    23:00 +20°C° 0 mm 1 mps 738 mmHg 68%

    Tomorrow, 18 July, Thursday

    Time Temperature Precipitation Wind Pressure Humidity
    00:00 +20°C° 0 mm 1 mps 738 mmHg 68%
    01:00 +20°C° 0 mm 1 mps 738 mmHg 68%
    02:00 +19°C° 0 mm 1 mps 738 mmHg 68%
    03:00 +19°C° 0 mm 1 mps 738 mmHg 70%
    04:00 +19°C° 0 mm 1 mps 738 mmHg 72%
    05:00 +18°C° 0 mm 1 mps 738 mmHg 74%
    06:00 +20°C° 0 mm 1 mps 738 mmHg 69%
    07:00 +22°C° 0 mm 1 mps 738 mmHg 64%
    08:00 +24°C° 0 mm 1 mps 739 mmHg 59%
    09:00 +25°C° 0 mm 1 mps 739 mmHg 54%
    10:00 +27°C° 0 mm 1 mps 739 mmHg 50%
    11:00 +28°C° 0 mm 1 mps 740 mmHg 45%
    12:00 +27°C° 0 mm 0 mps 740 mmHg 43%
    13:00 +27°C° 0 mm 0 mps 739 mmHg 41%
    14:00 +28°C° 0 mm 0 mps 739 mmHg 39%
    15:00 +30°C° 0 mm 1 mps 739 mmHg 40%
    16:00 +29°C° 0 mm 1 mps 739 mmHg 40%
    17:00 +29°C° 0 mm 1 mps 739 mmHg 40%
    18:00 +27°C° 0 mm 1 mps 739 mmHg 47%
    19:00 +25°C° 0 mm 1 mps 740 mmHg 53%
    20:00 +24°C° 0 mm 1 mps 740 mmHg 60%
    21:00 +23°C° 0 mm 1 mps 740 mmHg 62%
    22:00 +22°C° 0 mm 1 mps 741 mmHg 65%
    23:00 +21°C° 0 mm 1 mps 741 mmHg 67%

    Day after tomorrow, 19 July, Friday

    Time Temperature Precipitation Wind Pressure Humidity
    00:00 +21°C° 0 mm 1 mps 741 mmHg 69%
    01:00 +20°C° 0 mm 1 mps 741 mmHg 72%
    02:00 +20°C° 0 mm 1 mps 741 mmHg 74%
    03:00 +20°C° 0 mm 1 mps 741 mmHg 76%
    04:00 +19°C° 0 mm 1 mps 741 mmHg 77%
    05:00 +19°C° 0 mm 1 mps 741 mmHg 79%
    06:00 +21°C° 0 mm 1 mps 742 mmHg 73%
    07:00 +22°C° 0 mm 1 mps 742 mmHg 68%
    08:00 +24°C° 0 mm 1 mps 742 mmHg 63%
    09:00 +26°C° 0 mm 1 mps 742 mmHg 58%
    10:00 +27°C° 0 mm 1 mps 743 mmHg 53%
    11:00 +29°C° 0 mm 1 mps 743 mmHg 48%
    12:00 +29°C° 0 mm 1 mps 743 mmHg 45%
    13:00 +30°C° 0 mm 1 mps 742 mmHg 43%
    14:00 +30°C° 0 mm 1 mps 742 mmHg 41%
    15:00 +30°C° 0 mm 2 mps 742 mmHg 40%
    16:00 +30°C° 0 mm 2 mps 742 mmHg 40%
    17:00 +30°C° 0 mm 2 mps 742 mmHg 40%
    18:00 +28°C° 0 mm 2 mps 742 mmHg 46%
    19:00 +26°C° 0 mm 2 mps 742 mmHg 51%
    20:00 +24°C° 0 mm 3 mps 742 mmHg 57%
    21:00 +23°C° 0 mm 2 mps 743 mmHg 61%
    22:00 +21°C° 0 mm 2 mps 743 mmHg 65%
    23:00 +20°C° 0 mm 2 mps 743 mmHg 69%

    20 July, Saturday

    Time Temperature Precipitation Wind Pressure Humidity
    00:00 +19°C° 0 mm 2 mps 743 mmHg 70%
    01:00 +20°C° 0 mm 1 mps 743 mmHg 72%
    02:00 +20°C° 0 mm 1 mps 743 mmHg 73%
    03:00 +19°C° 0 mm 1 mps 743 mmHg 72%
    04:00 +19°C° 0 mm 1 mps 743 mmHg 71%
    05:00 +19°C° 0 mm 1 mps 743 mmHg 70%
    06:00 +21°C° 0 mm 1 mps 743 mmHg 65%
    07:00 +23°C° 0 mm 1 mps 743 mmHg 59%
    08:00 +25°C° 0 mm 1 mps 744 mmHg 54%
    09:00 +26°C° 0 mm 1 mps 744 mmHg 48%
    10:00 +28°C° 0 mm 1 mps 744 mmHg 42%
    11:00 +30°C° 0 mm 1 mps 744 mmHg 36%
    12:00 +30°C° 0 mm 2 mps 744 mmHg 36%
    13:00 +31°C° 0 mm 2 mps 744 mmHg 35%
    14:00 +31°C° 0 mm 2 mps 744 mmHg 35%
    15:00 +31°C° 0 mm 2 mps 744 mmHg 36%
    16:00 +31°C° 0 mm 2 mps 743 mmHg 37%
    17:00 +31°C° 0 mm 2 mps 743 mmHg 38%
    18:00 +29°C° 0 mm 2 mps 743 mmHg 43%
    19:00 +27°C° 0 mm 2 mps 743 mmHg 48%
    20:00 +25°C° 0 mm 2 mps 744 mmHg 53%
    21:00 +24°C° 0 mm 2 mps 744 mmHg 55%
    22:00 +23°C° 0 mm 2 mps 744 mmHg 57%
    23:00 +22°C° 0 mm 1 mps 745 mmHg 59%

    21 July, Sunday

    Time Temperature Precipitation Wind Pressure Humidity
    00:00 +21°C° 0 mm 1 mps 744 mmHg 59%
    01:00 +21°C° 0 mm 1 mps 744 mmHg 60%
    02:00 +21°C° 0 mm 1 mps 744 mmHg 61%
    03:00 +21°C° 0 mm 1 mps 744 mmHg 62%
    04:00 +20°C° 0 mm 1 mps 744 mmHg 62%
    05:00 +20°C° 0 mm 1 mps 744 mmHg 63%
    06:00 +22°C° 0 mm 1 mps 744 mmHg 60%
    07:00 +24°C° 0 mm 1 mps 744 mmHg 56%
    08:00 +26°C° 0 mm 1 mps 744 mmHg 53%
    09:00 +28°C° 0 mm 1 mps 745 mmHg 48%
    10:00 +29°C° 0 mm 1 mps 745 mmHg 44%
    11:00 +31°C° 0 mm 1 mps 745 mmHg 40%
    12:00 +32°C° 0 mm 1 mps 745 mmHg 39%
    13:00 +32°C° 0 mm 2 mps 744 mmHg 38%
    14:00 +34°C° 0 mm 2 mps 744 mmHg 37%
    15:00 +34°C° 0 mm 2 mps 744 mmHg 38%
    16:00 +34°C° 0 mm 2 mps 744 mmHg 39%
    17:00 +34°C° 0 mm 2 mps 743 mmHg 40%
    18:00 +31°C° 0 mm 2 mps 744 mmHg 45%
    19:00 +29°C° 0 mm 2 mps 744 mmHg 50%
    20:00 +27°C° 0 mm 2 mps 744 mmHg 55%
    21:00 +26°C° 0 mm 2 mps 744 mmHg 55%
    22:00 +25°C° 0 mm 2 mps 744 mmHg 55%
    23:00 +23°C° 0 mm 1 mps 744 mmHg 55%

    22 July, Monday

    Time Temperature Precipitation Wind Pressure Humidity
    00:00 +23°C° 0 mm 1 mps 744 mmHg 55%
    01:00 +23°C° 0 mm 1 mps 744 mmHg 55%
    02:00 +22°C° 0 mm 1 mps 743 mmHg 56%
    03:00 +22°C° 0 mm 1 mps 743 mmHg 56%
    04:00 +22°C° 0 mm 1 mps 743 mmHg 57%
    05:00 +21°C° 0 mm 1 mps 743 mmHg 58%
    06:00 +23°C° 0 mm 1 mps 743 mmHg 55%
    07:00 +25°C° 0 mm 1 mps 743 mmHg 52%
    08:00 +27°C° 0 mm 1 mps 743 mmHg 50%
    09:00 +29°C° 0 mm 1 mps 743 mmHg 46%
    10:00 +31°C° 0 mm 1 mps 743 mmHg 43%
    11:00 +31°C° 0 mm 0 mps 743 mmHg 39%
    12:00 +34°C° 0 mm 1 mps 743 mmHg 38%
    13:00 +34°C° 0 mm 1 mps 743 mmHg 37%
    14:00 +34°C° 0 mm 1 mps 742 mmHg 36%
    15:00 +34°C° 0 mm 1 mps 742 mmHg 38%
    16:00 +35°C° 0 mm 2 mps 742 mmHg 39%
    17:00 +35°C° 0 mm 2 mps 741 mmHg 40%
    18:00 +32°C° 0 mm 1 mps 741 mmHg 44%
    19:00 +30°C° 0 mm 1 mps 741 mmHg 48%
    20:00 +28°C° 0 mm 1 mps 741 mmHg 52%
    21:00 +27°C° 0 mm 1 mps 741 mmHg 53%
    22:00 +26°C° 0 mm 1 mps 741 mmHg 54%
    23:00 +26°C° 0 mm 1 mps 741 mmHg 55%
    Show more